Weather History for Longview, TX

Change the Weather History Date:

Sunday, March 9, 2014

  Actual Average Record
Temperature  
Mean Temperature 47 °F 56 °F  
Max Temperature 53 °F 68 °F 88 °F (1911)
Min Temperature 40 °F 45 °F 20 °F (1996)
Degree Days  
Heating Degree Days 18 9  
Month to date heating degree days 181 95  
Since 1 July heating degree days 2305 1999  
Cooling Degree Days 0 1  
Month to date cooling degree days 3 9  
Year to date cooling degree days 8 21  
Moisture  
Dew Point 42 °F    
Average Humidity 85    
Maximum Humidity 93    
Minimum Humidity 77    
Precipitation  
Precipitation 0.01 in 0.13 in 1.28 in (1976)
Month to date precipitation 0.99 1.25  
Year to date precipitation 3.97 8.61  
Snow  
Snow 0.00 in - - ()
Month to date snowfall 0.1  
Since 1 July snowfall 0.3  
Snow Depth 0.00 in    
Sea Level Pressure  
Sea Level Pressure 30.25 in    
Wind  
Wind Speed 5 mph (WNW)    
Max Wind Speed 16 mph    
Max Gust Speed 21 mph    
Visibility 3 miles    
Events Fog    
T = Trace of Precipitation, MM = Missing Value Source: NWS Daily Summary

Daily Weather History Graph

Daily Weather History Graph

Search for Another Location

Airport:

Trip Planner

Search our weather history database for the weather conditions in past years. The results will help you decide how hot, cold, wet, or windy it might be!

Date:

Astronomy

Mar. 09, 2014 Rise Set
Actual Time 7:36 AM CDT 7:22 PM CDT
Civil Twilight 7:12 AM CDT 7:47 PM CDT
Nautical Twilight 6:43 AM CDT 8:15 PM CDT
Astronomical Twilight 6:15 AM CDT 8:43 PM CDT
Moon 1:30 PM CDT (3/9) 3:48 AM CDT (3/9)
Length of Visible Light 12h 34m
Length of Day
11h 45m
First Quarter, 61% of the Moon is Illuminated
Mar 9
First Quarter
Mar 16
Full
Mar 23
Last Quarter
Mar 30
New
Apr 7
First Quarter

Hourly Weather History & Observations

Time (CDT) Temp. Windchill Dew Point Humidity Pressure Visibility Wind Dir Wind Speed Gust Speed Precip Events Conditions
12:36 AM 42.8 °F 35.8 °F 41.0 °F 93% 30.24 in 2.5 mi NW 13.8 mph - 0.00 in   Overcast
12:53 AM 42.1 °F 34.5 °F 39.0 °F 89% 30.24 in 3.0 mi NW 15.0 mph - 0.01 in   Overcast
1:34 AM 41.0 °F 37.1 °F 39.2 °F 93% 30.25 in 2.5 mi NW 5.8 mph - N/A   Overcast
1:53 AM 41.0 °F 34.7 °F 39.0 °F 93% 30.25 in 2.0 mi NW 10.4 mph - N/A   Overcast
3:44 AM 41.0 °F 35.2 °F 37.4 °F 87% 30.22 in 4.0 mi NW 9.2 mph - N/A   Overcast
3:53 AM 41.0 °F 35.2 °F 37.9 °F 89% 30.23 in 4.0 mi NW 9.2 mph - N/A   Overcast
4:30 AM 41.0 °F 35.8 °F 37.4 °F 87% 30.21 in 2.5 mi NW 8.1 mph - N/A   Overcast
4:53 AM 41.0 °F 35.2 °F 37.9 °F 89% 30.22 in 2.0 mi NNW 9.2 mph - N/A   Overcast
5:30 AM 39.2 °F 32.5 °F 37.4 °F 93% 30.24 in 2.0 mi NW 10.4 mph - 0.00 in   Overcast
5:53 AM 39.9 °F 34.5 °F 37.9 °F 93% 30.25 in 2.5 mi NW 8.1 mph - 0.00 in   Overcast
6:17 AM 39.2 °F 34.2 °F 37.4 °F 93% 30.25 in 3.0 mi NW 6.9 mph - N/A   Overcast
6:44 AM 39.2 °F 34.2 °F 37.4 °F 93% 30.26 in 3.0 mi NW 6.9 mph - N/A   Overcast
6:53 AM 39.9 °F 34.5 °F 37.9 °F 93% 30.27 in 3.0 mi NW 8.1 mph - N/A   Overcast
7:31 AM 39.2 °F 33.0 °F 37.4 °F 93% 30.28 in 2.5 mi NW 9.2 mph - N/A   Overcast
7:53 AM 39.9 °F 34.5 °F 37.9 °F 93% 30.29 in 2.0 mi NW 8.1 mph - N/A   Overcast
8:53 AM 39.9 °F 33.4 °F 37.9 °F 93% 30.31 in 2.0 mi NW 10.4 mph - N/A   Overcast
9:23 AM 39.2 °F 33.0 °F 37.4 °F 93% 30.30 in 1.8 mi NW 9.2 mph - N/A   Overcast
9:53 AM 41.0 °F 35.2 °F 39.0 °F 93% 30.32 in 2.0 mi NW 9.2 mph - N/A   Overcast
10:53 AM 42.1 °F 37.7 °F 39.0 °F 89% 30.32 in 1.5 mi NW 6.9 mph - N/A   Overcast
11:53 AM 45.0 °F 42.6 °F 41.0 °F 86% 30.32 in 1.5 mi NW 4.6 mph - N/A   Overcast
12:00 PM 44.6 °F 42.2 °F 41.0 °F 87% 30.31 in 1.5 mi WNW 4.6 mph - N/A   Overcast
12:53 PM 46.0 °F - 42.1 °F 86% 30.31 in 1.5 mi Calm Calm - N/A   Overcast
1:00 PM 46.4 °F - 42.8 °F 87% 30.30 in 2.0 mi Calm Calm - N/A   Haze
1:53 PM 48.0 °F - 42.1 °F 80% 30.30 in 2.0 mi Variable 4.6 mph - N/A   Haze
2:53 PM 48.9 °F - 43.0 °F 80% 30.27 in 3.0 mi WNW 3.5 mph - N/A   Haze
3:43 PM 50.0 °F - 44.6 °F 82% 30.25 in 3.0 mi NW 4.6 mph - N/A   Haze
3:53 PM 50.0 °F - 44.1 °F 80% 30.25 in 2.5 mi WNW 3.5 mph - N/A   Haze
4:53 PM 52.0 °F - 45.0 °F 77% 30.23 in 3.0 mi Calm Calm - N/A   Haze
5:53 PM 52.0 °F - 45.0 °F 77% 30.21 in 4.0 mi Calm Calm - N/A   Haze
6:53 PM 52.0 °F - 46.0 °F 80% 30.21 in 4.0 mi Calm Calm - N/A   Haze
7:53 PM 52.0 °F - 46.9 °F 83% 30.22 in 6.0 mi Calm Calm - N/A   Haze
8:43 PM 51.8 °F - 46.4 °F 82% 30.22 in 7.0 mi Calm Calm - N/A   Overcast
8:53 PM 52.0 °F - 46.0 °F 80% 30.23 in 6.0 mi Calm Calm - N/A   Haze
9:53 PM 52.0 °F - 46.9 °F 83% 30.23 in 5.0 mi Calm Calm - N/A   Haze
10:48 PM 48.2 °F - 44.6 °F 87% 30.22 in 4.0 mi SSE 5.8 mph - N/A   Scattered Clouds
10:53 PM 48.0 °F - 45.0 °F 89% 30.23 in 3.0 mi SSE 4.6 mph - N/A   Partly Cloudy
11:24 PM 46.4 °F - 44.6 °F 93% 30.21 in 2.0 mi Calm Calm - N/A   Clear
11:29 PM 46.4 °F 45.2 °F 42.8 °F 87% 30.21 in 1.2 mi South 3.5 mph - N/A   Partly Cloudy
11:34 PM 46.4 °F 45.2 °F 44.6 °F 93% 30.21 in 0.8 mi South 3.5 mph - N/A   Mist
11:46 PM 46.4 °F 45.2 °F 44.6 °F 93% 30.20 in 1.2 mi SSW 3.5 mph - N/A   Partly Cloudy
11:53 PM 44.1 °F 41.5 °F 43.0 °F 96% 30.22 in 1.5 mi South 4.6 mph - N/A   Partly Cloudy
11:57 PM 44.6 °F 42.2 °F 42.8 °F 93% 30.20 in 0.8 mi South 4.6 mph - N/A   Mist
12:48 AM 44.6 °F - 42.8 °F 93% 30.20 in 0.2 mi Calm Calm - N/A Fog Fog
12:53 AM 46.0 °F - 43.0 °F 89% 30.21 in 0.2 mi Calm Calm - N/A Fog Fog